Thedford, NE

12:35 PM CST on December 15, 2017 (GMT -0600)
Thedford

Weather History for KTIF - June, 2013

Change the Weather History Date:

Sunday, June 23, 2013

  Actual Average (KANW) Record (KANW)
Temperature  
Mean Temperature 68 °F -  
Max Temperature 80 °F 78 °F 93 °F (2002)
Min Temperature 56 °F 55 °F 51 °F (2011)
Cooling Degree Days 3    
Growing Degree Days 18 (Base 50)    
Moisture  
Dew Point 56 °F    
Average Humidity 67    
Maximum Humidity 91    
Minimum Humidity 42    
Precipitation  
Precipitation 0.13 in - - ()
Sea Level Pressure  
Sea Level Pressure 29.92 in    
Wind  
Wind Speed 7 mph (ENE)    
Max Wind Speed 16 mph    
Max Gust Speed -    
Visibility 10 miles    
Events Rain , Thunderstorm    
Averages and records for this station are not official NWS values.
T = Trace of Precipitation, MM = Missing Value Source: NWS Daily Summary

Daily Weather History Graph

Daily Weather History Graph

Search for Another Location

Airport or City:

Trip Planner

Search our weather history database for the weather conditions in past years. The results will help you decide how hot, cold, wet, or windy it might be!

Date:

Astronomy

Jun. 23, 2013 Rise Set
Actual Time 6:07 AM CDT 9:21 PM CDT
Civil Twilight 5:33 AM CDT 9:56 PM CDT
Nautical Twilight 4:48 AM CDT 10:40 PM CDT
Astronomical Twilight 3:54 AM CDT 11:34 PM CDT
Moon 9:34 PM CDT (6/23) 6:28 AM CDT (6/23)
Length of Visible Light 16h 22m
Length of Day
15h 14m
Full, 100% of the Moon is Illuminated
Jun 23
Full
Jun 29
Last Quarter
Jul 8
New
Jul 15
First Quarter
Jul 22
Full

Hourly Weather History & Observations

Time (CDT) Temp. Heat Index Dew Point Humidity Pressure Visibility Wind Dir Wind Speed Gust Speed Precip Events Conditions
12:15 AM 59.2 °F - 56.1 °F 90% 30.01 in 7.0 mi WNW 10.4 mph - 0.02 in Rain , Thunderstorm Rain
12:35 AM 59.0 °F - 56.3 °F 91% 29.98 in 7.0 mi NNW 4.6 mph - 0.07 in Rain , Thunderstorm Thunderstorms and Rain
12:55 AM 58.3 °F - 55.6 °F 91% 29.90 in 10.0 mi North 13.8 mph - 0.12 in Rain Rain
1:15 AM 59.9 °F - 56.5 °F 88% 29.85 in 10.0 mi East 11.5 mph - 0.01 in Rain Light Rain
1:35 AM 60.3 °F - 56.7 °F 88% 29.83 in 10.0 mi NE 13.8 mph - 0.01 in   Mostly Cloudy
1:55 AM 60.1 °F - 56.5 °F 88% 29.84 in 10.0 mi ENE 9.2 mph - 0.01 in   Scattered Clouds
2:15 AM 60.4 °F - 56.3 °F 86% 29.84 in 10.0 mi East 9.2 mph - N/A   Mostly Cloudy
2:35 AM 60.8 °F - 56.3 °F 85% 29.85 in 10.0 mi ESE 5.8 mph - N/A   Scattered Clouds
2:55 AM 61.7 °F - 55.8 °F 81% 29.88 in 10.0 mi ESE 4.6 mph - N/A   Scattered Clouds
3:15 AM 61.2 °F - 56.1 °F 83% 29.85 in 10.0 mi East 6.9 mph - N/A   Scattered Clouds
3:35 AM 61.9 °F - 55.8 °F 80% 29.89 in 10.0 mi SE 5.8 mph - N/A   Scattered Clouds
3:55 AM 60.8 °F - 56.1 °F 85% 29.85 in 10.0 mi East 8.1 mph - N/A   Clear
4:15 AM 61.0 °F - 55.9 °F 83% 29.73 in 10.0 mi NE 16.1 mph - N/A   Scattered Clouds
4:35 AM 62.1 °F - 54.7 °F 77% 29.84 in 10.0 mi North 4.6 mph - N/A   Scattered Clouds
4:55 AM 61.2 °F - 55.2 °F 81% 29.86 in 10.0 mi North 9.2 mph - N/A   Clear
5:15 AM 60.1 °F - 55.4 °F 85% 29.87 in 10.0 mi NNW 8.1 mph - N/A   Clear
5:35 AM 59.2 °F - 54.7 °F 85% 29.88 in 10.0 mi NNW 6.9 mph - N/A   Clear
5:55 AM 58.5 °F - 54.1 °F 86% 29.89 in 10.0 mi NW 5.8 mph - N/A   Clear
6:15 AM 57.6 °F - 54.0 °F 88% 29.89 in 10.0 mi NW 5.8 mph - N/A   Clear
6:35 AM 56.5 °F - 53.6 °F 90% 29.89 in 10.0 mi NW 4.6 mph - N/A   Clear
6:55 AM 56.5 °F - 53.8 °F 91% 29.91 in 10.0 mi Calm Calm - N/A   Clear
7:15 AM 58.1 °F - 55.2 °F 90% 29.91 in 10.0 mi WNW 3.5 mph - N/A   Clear
7:35 AM 59.0 °F - 55.2 °F 87% 29.92 in 10.0 mi NW 3.5 mph - N/A   Clear
7:55 AM 59.9 °F - 55.6 °F 86% 29.94 in 10.0 mi Calm Calm - N/A   Clear
8:15 AM 61.9 °F - 55.4 °F 79% 29.94 in 10.0 mi NW 4.6 mph - N/A   Clear
8:35 AM 63.0 °F - 55.6 °F 77% 29.95 in 10.0 mi NW 5.8 mph - N/A   Clear
8:55 AM 63.9 °F - 55.6 °F 74% 29.96 in 10.0 mi NW 4.6 mph - N/A   Clear
9:15 AM 64.8 °F - 54.9 °F 70% 29.96 in 10.0 mi NNW 5.8 mph - N/A   Clear
9:35 AM 66.2 °F - 55.2 °F 68% 29.97 in 10.0 mi NNW 9.2 mph - N/A   Clear
9:55 AM 66.4 °F - 55.0 °F 67% 29.96 in 10.0 mi NNW 8.1 mph - N/A   Clear
10:15 AM 66.9 °F - 54.7 °F 65% 29.97 in 10.0 mi North 6.9 mph - N/A   Clear
10:35 AM 68.0 °F - 52.7 °F 58% 29.97 in 10.0 mi North 6.9 mph - N/A   Clear
10:55 AM 68.7 °F - 54.1 °F 60% 29.97 in 10.0 mi North 6.9 mph - N/A   Clear
11:15 AM 69.8 °F - 52.7 °F 54% 29.96 in 10.0 mi NNE 6.9 mph - N/A   Clear
11:35 AM 70.9 °F - 54.3 °F 56% 29.97 in 10.0 mi NE 8.1 mph - N/A   Clear
11:55 AM 71.6 °F - 54.3 °F 54% 29.97 in 10.0 mi NE 5.8 mph - N/A   Clear
12:15 PM 72.1 °F - 54.1 °F 53% 29.97 in 10.0 mi ENE 6.9 mph - N/A   Clear
12:35 PM 73.2 °F - 55.0 °F 53% 29.97 in 10.0 mi NE 5.8 mph - N/A   Clear
12:55 PM 73.2 °F - 54.5 °F 52% 29.97 in 10.0 mi NNE 4.6 mph - N/A   Clear
1:15 PM 73.9 °F - 54.9 °F 51% 29.96 in 10.0 mi Calm Calm - N/A   Clear
1:35 PM 74.5 °F - 54.1 °F 49% 29.96 in 10.0 mi ENE 5.8 mph - N/A   Clear
1:55 PM 75.6 °F - 54.3 °F 48% 29.96 in 10.0 mi Calm Calm - N/A   Clear
2:15 PM 75.6 °F - 55.8 °F 50% 29.96 in 10.0 mi NE 6.9 mph - N/A   Clear
2:35 PM 76.5 °F - 55.9 °F 49% 29.95 in 10.0 mi NE 3.5 mph - N/A   Clear
2:55 PM 76.5 °F - 55.8 °F 49% 29.94 in 10.0 mi NE 5.8 mph - N/A   Clear
3:15 PM 77.2 °F - 55.8 °F 47% 29.94 in 10.0 mi East 4.6 mph - N/A   Clear
3:35 PM 77.9 °F - 55.6 °F 46% 29.93 in 10.0 mi SSW 3.5 mph - N/A   Clear
3:55 PM 78.6 °F - 55.6 °F 45% 29.92 in 10.0 mi East 4.6 mph - N/A   Clear
4:15 PM 79.3 °F - 55.9 °F 44% 29.92 in 10.0 mi South 3.5 mph - N/A   Clear
4:35 PM 80.1 °F 80.4 °F 56.8 °F 45% 29.91 in 10.0 mi ESE 6.9 mph - N/A   Mostly Cloudy
4:55 PM 78.8 °F - 57.2 °F 47% 29.92 in 10.0 mi ESE 4.6 mph - N/A   Mostly Cloudy
5:15 PM 80.2 °F 80.3 °F 55.2 °F 42% 29.91 in 10.0 mi SE 6.9 mph - N/A   Scattered Clouds
5:35 PM 80.1 °F 80.3 °F 56.3 °F 44% 29.91 in 10.0 mi South 8.1 mph - N/A   Clear
5:55 PM 79.9 °F - 56.5 °F 45% 29.90 in 10.0 mi South 3.5 mph - N/A   Clear
6:15 PM 79.5 °F - 55.9 °F 44% 29.90 in 10.0 mi Calm Calm - N/A   Clear
6:35 PM 79.7 °F - 56.1 °F 44% 29.89 in 10.0 mi SSW 3.5 mph - N/A   Clear
6:55 PM 79.9 °F - 57.4 °F 46% 29.89 in 10.0 mi SE 5.8 mph - N/A   Clear
7:15 PM 79.3 °F - 57.4 °F 47% 29.89 in 10.0 mi SSE 6.9 mph - N/A   Clear
7:35 PM 79.2 °F - 57.9 °F 48% 29.89 in 10.0 mi ESE 6.9 mph - N/A   Clear
7:55 PM 78.8 °F - 57.0 °F 47% 29.89 in 10.0 mi SSE 4.6 mph - N/A   Clear
8:15 PM 77.9 °F - 59.2 °F 52% 29.89 in 10.0 mi SE 9.2 mph - N/A   Clear
8:35 PM 76.5 °F - 59.7 °F 56% 29.89 in 10.0 mi SE 6.9 mph - N/A   Clear
8:55 PM 74.1 °F - 61.7 °F 65% 29.90 in 10.0 mi SE 4.6 mph - N/A   Clear
9:15 PM 72.7 °F - 61.7 °F 68% 29.91 in 10.0 mi SSE 4.6 mph - N/A   Clear
9:35 PM 70.5 °F - 61.9 °F 74% 29.91 in 10.0 mi SE 4.6 mph - N/A   Clear
9:55 PM 70.2 °F - 61.7 °F 74% 29.92 in 10.0 mi SE 5.8 mph - N/A   Clear
10:15 PM 69.8 °F - 61.7 °F 75% 29.92 in 10.0 mi SE 5.8 mph - N/A   Clear
10:35 PM 68.9 °F - 61.7 °F 78% 29.93 in 10.0 mi SE 4.6 mph - N/A   Clear
10:55 PM 68.2 °F - 62.2 °F 81% 29.93 in 10.0 mi SE 6.9 mph - N/A   Clear
11:15 PM 68.0 °F - 62.6 °F 83% 29.92 in 10.0 mi SE 5.8 mph - N/A   Clear
11:35 PM 67.6 °F - 63.0 °F 85% 29.94 in 10.0 mi SE 5.8 mph - N/A   Clear
11:55 PM 67.1 °F - 62.8 °F 86% 29.93 in 10.0 mi SE 5.8 mph - N/A   Clear